Retour au catalogue

FENGYUN 1C DEB

ActifPO
NORAD 31780·DEBRIS·🇨🇳 China

Lancé May 10, 1999 depuis Taiyuan Satellite Launch Center

Loading…

Prochains Passages (prochaines 24 heures)

TLE

FraisSource: Space-Track

Époque: Sep 12, 2026, 11:52 UTC

1 31780U 99025CGF 26255.49464861  .00001076  00000-0  16007-3 0  9997
2 31780  99.3017  91.2982 0146127 292.7193  65.8620 14.70792294 25082

Suivez FENGYUN 1C DEB en temps réel avec AllMySat

Download on the App Store